Regional Weather Roundup
Issued by NWS

Home | Current Version | Previous Version | Graphics & Text | Print | Product List | Glossary On
Versions: 1 2 3 4 5 6 7 8 9 10 11 12 13 14 15 16 17 18 19 20 21 22 23 24 25 26 27 28 29 30 31 32 33 34 35 36 37 38 39 40 41 42 43 44 45 46 47 48 49 50
000
ASUS45 KPSR 261510
RWRAZ

ARIZONA REGIONAL HOURLY WEATHER ROUNDUP
NATIONAL WEATHER SERVICE PHOENIX AZ
800 AM MST THU FEB 26 2015

NOTE: FAIR INDICATES FEW OR NO CLOUDS BELOW 12,000 FEET WITH NO
SIGNIFICANT WEATHER AND/OR OBSTRUCTIONS TO VISIBILITY.

AZZ001>003-036-261600-
NORTHWEST ARIZONA

CITY           SKY/WX    TMP DP  RH WIND       PRES   REMARKS
BULLHEAD CITY  SUNNY     46  32  57 CALM      29.91R
KINGMAN        MOSUNNY   43  28  55 CALM      29.93S
$$

AZZ004>008-015-016-018-261600-
NORTH CENTRAL ARIZONA

CITY           SKY/WX    TMP DP  RH WIND       PRES   REMARKS
GRAND CANYON   CLOUDY    28  23  81 VRB5      30.01R WCI  23
PRESCOTT       MOSUNNY   37  25  61 W5        29.99R WCI  33
FLAGSTAFF      CLOUDY    26  18  71 CALM      30.01R
PAYSON         MOSUNNY   41  27  56 CALM      30.01R
PAGE           CLOUDY    41  27  57 E5        29.96F
$$

AZZ009>014-017-261600-
NORTHEAST ARIZONA

CITY           SKY/WX    TMP DP  RH WIND       PRES   REMARKS
WINSLOW        PTSUNNY   31  26  82 SE7       30.01R WCI  24
SAINT JOHNS    SUNNY     32  26  78 S8        30.01S WCI  25
WINDOW ROCK    MOSUNNY   25  21  85 CALM      30.02R
SHOW LOW       SUNNY     30  23  74 S6        30.03S WCI  24
$$

AZZ023-261600-
GREATER PHOENIX AREA

CITY           SKY/WX    TMP DP  RH WIND       PRES   REMARKS
PHOENIX        MOSUNNY   53  36  52 SE7       29.91F
BUCKEYE        SUNNY     45  32  61 CALM      29.93R
GLENDALE       MOSUNNY   50  36  57 CALM      29.94S
LUKE AFB       SUNNY     48  38  67 N7        29.92R
DEER VALLEY    SUNNY     51  34  52 NE7       29.92S
SCOTTSDALE     SUNNY     51  35  54 CALM      29.94S
MESA-FALCON    MOSUNNY   48  36  61 NE6       29.92F
MESA-GATEWAY   MOSUNNY   45  36  70 SE6       29.95S
CHANDLER       MOSUNNY   46  37  71 E6        29.94R
$$

AZZ027-028-261600-
SOUTHWEST MARICOPA COUNTY AND PINAL COUNTY

CITY           SKY/WX    TMP DP  RH WIND       PRES   REMARKS
CASA GRANDE    SUNNY     45  32  61 CALM      29.93F
GILA BEND      SUNNY     51  26  38 SE1       29.91F
$$

AZZ503-504-507>509-261600-
SOUTHEAST ARIZONA

CITY           SKY/WX    TMP DP  RH WIND       PRES   REMARKS
TUCSON         SUNNY     45  30  55 SE9       29.99R
DAVIS-MONTHAN  SUNNY     46  30  54 S7        29.97R
RYAN FIELD       N/A     50  43  76 E8        29.98S
NOGALES        SUNNY     39  26  59 CALM      30.00R
SIERRA VISTA   MOSUNNY   48  25  40 SE3       30.01R
DOUGLAS        SUNNY     42  27  55 E5        30.04R
SAFFORD        MOSUNNY   41  33  73 S5        30.00R
$$

AZZ020-021-025-026-031-261600-
SOUTHWEST ARIZONA

CITY           SKY/WX    TMP DP  RH WIND       PRES   REMARKS
YUMA           MOSUNNY   54  36  50 CALM      29.88R
$$

CAZ031-033-041-043-047-048-061-261600-
SOUTHERN CALIFORNIA

CITY           SKY/WX    TMP DP  RH WIND       PRES   REMARKS
DOWNTOWN L.A.  SUNNY    N/A N/A N/A CALM      29.95S
L.A. AIRPORT   MOSUNNY   52  47  83 CALM      29.96S
SAN DIEGO      MOSUNNY   53  45  74 N3        29.97R
BURBANK        SUNNY     47  38  71 CALM      29.95R
ONTARIO        MOSUNNY   48  41  76 CALM      29.95R
RIVERSIDE      SUNNY     47  41  80 CALM      29.96R
PALM SPRINGS   SUNNY     57  35  43 CALM      29.88S
EL CENTRO NAS  MOSUNNY   47  28  47 CALM      29.87R
IMPERIAL       SUNNY     49  31  49 S3        29.86R
BLYTHE         SUNNY     47  28  47 NW5       29.88R
NEEDLES        SUNNY     50  34  54 N3        29.89S
$$

NVZ020-UTZ003-261600-
SOUTHERN NEVADA-UTAH

CITY           SKY/WX    TMP DP  RH WIND       PRES   REMARKS
LAS VEGAS      MOSUNNY   50  30  46 SW7       29.88R
SALT LAKE CITY CLOUDY    36  22  56 W5        29.96R WCI  32
$$

NMZ009-TXZ055-261600-
NEW MEXICO-WEST TEXAS

CITY           SKY/WX    TMP DP  RH WIND       PRES   REMARKS
ALBUQUERQUE    PTSUNNY   35  25  66 E20       30.05R WCI  24
EL PASO        PTSUNNY   44  25  47 CALM      30.06R
$$


........................KEY........................
SKY/WX - SKY CONDITION/WEATHER
TMP    - TEMPERATURE IN FAHRENHEIT
DP     - DEW POINT IN FAHRENHEIT
RH     - RELATIVE HUMIDITY IN PERCENT
WIND   - DIRECTION AND SPEED IN MILES PER HOUR (MPH)
VRB    - VARIABLE WIND DIRECTION
PRES   - MEAN SEA LEVEL PRESSURE IN INCHES OF MERCURY
         F - FALLING PRESSURE   R - RISING PRESSURE
         S - STEADY PRESSURE
VSB    - VISIBILITY IN MILES
HX     - HEAT INDEX IN FAHRENHEIT
WCI    - WIND CHILL INDEX IN FAHRENHEIT
TC     - TEMPERATURE IN CELSIUS WHICH IS ALSO KNOWN AS
         TEMPERATURE IN CENTIGRADE
AFB    - AIR FORCE BASE
         LUKE AFB IS LUKE AIR FORCE BASE
         DAVIS-MONTHAN IS DAVIS-MONTHAN AIR FORCE BASE
NAS    - NAVAL AIR STATION
         EL CENTRO NAS IS EL CENTRO NAVAL AIR STATION
N/A    - NOT AVAILABLE


USA.gov is the U.S. government's official web portal to all federal, state and local government web resources and services.